Regional Weather Roundup
Issued by NWS

Current Version | Previous Version | Text Only | Print | Product List | Glossary On
Versions: 1 2 3 4 5 6 7 8 9 10 11 12 13 14 15 16 17 18 19 20 21 22 23 24 25 26 27 28 29 30 31 32 33 34 35 36 37 38 39 40 41 42 43 44 45 46 47 48 49 50
000
ASUS44 KBMX 240110
RWRAL

ALABAMA REGIONAL WEATHER ROUNDUP
NATIONAL WEATHER SERVICE BIRMINGHAM AL
800 PM CDT TUE SEP 23 2014

NOTE: "FAIR" INDICATES FEW OR NO CLOUDS BELOW 12,000 FEET
WITH NO SIGNIFICANT WEATHER AND/OR OBSTRUCTIONS TO VISIBILITY.

THE REMARK "TC" DENOTES TEMPERATURE IN DEGREES CELSIUS.

ALZ001>011-014-016>018-020-240200-
NORTH ALABAMA

CITY           SKY/WX    TMP DP  RH WIND       PRES   REMARKS
MUSCLE SHOALS  CLEAR     70  53  54 NE6       30.18R
HUNTSVILLE     CLEAR     70  53  54 E6        30.17R
DECATUR        CLEAR     67  54  63 NE3       30.17R
HALEYVILLE     FAIR      63  56  78 CALM      30.19R
GADSDEN        CLEAR     66  54  63 E5        30.17R
$$

ALZ012-013-022-023-030>036-040>044-240200-
WEST CENTRAL ALABAMA

CITY           SKY/WX    TMP DP  RH WIND       PRES   REMARKS
TUSCALOOSA     CLEAR     75  52  44 NE6       30.12R
$$

ALZ015-024>027-033>036-040>044-240200-
CENTRAL ALABAMA

CITY           SKY/WX    TMP DP  RH WIND       PRES   REMARKS
BIRMINGHAM     CLEAR     69  56  62 NE3       30.16R
MONTGOMERY     MOCLDY    76  58  53 NE9       30.12R
SHELBY CO ARPT CLEAR     72  57  59 CALM      30.14R
MAXWELL AFB    CLOUDY    75  60  58 NE8       30.12R
GREENVILLE     FAIR      70  60  70 NE6       30.11R
$$

ALZ019-021-028-029-037-038-045>048-240200-
EAST CENTRAL ALABAMA

CITY           SKY/WX    TMP DP  RH WIND       PRES   REMARKS
ANNISTON       CLEAR     70  57  63 E3        30.17R
ALEXANDER CITY CLEAR     70  60  70 E3        30.16S
AUBURN         CLEAR     66  57  72 NE7       30.18S
$$

ALZ051>064-240200-
SOUTHWEST ALABAMA

CITY           SKY/WX    TMP DP  RH WIND       PRES   REMARKS
MOBILE         CLEAR     71  59  65 E5        30.07R
BROOKLEY FIELD CLEAR     77  61  57 E15       30.07R
EVERGREEN      CLEAR     68  61  78 CALM      30.10R
$$

ALZ049-050-065>069-240200-
SOUTHEAST ALABAMA

CITY           SKY/WX    TMP DP  RH WIND       PRES   REMARKS
DOTHAN         CLEAR     69  61  75 NE5       30.14R
OZARK          CLEAR     71  61  69 NE7       30.10R
TROY           CLEAR     69  59  70 NE5       30.12R
EUFAULA        FAIR      69  61  75 CALM      30.11R
$$



USA.gov is the U.S. government's official web portal to all federal, state and local government web resources and services.